Temp
-26 -27 -28 -29 -29 -29 -28 -28 -27 -27 -26 -26 -26 -26 -25 -24 -24 -23 -23 -23 -22 -21 -20 -20 -19 -18 -16 -16 -15 -13 -13 -13 -13 -13 -13 -12 -12 -13
-26 -28 -29 -29 -29 -29 -28 -28 -27 -27 -27 -27 -26 -25 -24 -24 -23 -23 -23 -22 -22 -21 -20 -19 -19 -18 -16 -16 -15 -14 -13 -13 -13 -13 -13 -13 -13 -13
-27 -28 -29 -29 -29 -28 -28 -28 -27 -27 -27 -27 -26 -25 -24 -24 -24 -23 -23 -22 -20 -20 -18 -18 -17 -17 -16 -15 -15 -13 -13 -12 -12 -13 -13 -13 -13 -13
-27 -28 -29 -29 -29 -28 -28 -28 -27 -27 -27 -28 -26 -25 -24 -23 -23 -22 -22 -22 -21 -21 -19 -17 -17 -16 -15 -14 -13 -14 -13 -12 -12 -13 -13 -13 -13 -13
-27 -28 -28 -28 -28 -28 -28 -28 -27 -27 -27 -28 -26 -25 -24 -24 -23 -22 -22 -21 -21 -21 -18 -17 -17 -17 -14 -14 -13 -13 -12 -13 -13 -13 -13 -13 -13 -13
-27 -27 -28 -28 -28 -28 -28 -27 -27 -27 -27 -27 -26 -25 -24 -23 -23 -22 -22 -21 -20 -20 -19 -18 -17 -17 -15 -15 -14 -14 -13 -14 -13 -13 -13 -13 -13 -14
-27 -27 -27 -27 -28 -28 -28 -27 -27 -27 -27 -27 -26 -25 -24 -23 -22 -22 -22 -21 -20 -18 -18 -17 -16 -16 -15 -14 -14 -13 -14 -14 -14 -13 -13 -14 -14 -14
-27 -27 -27 -27 -28 -28 -27 -27 -27 -27 -27 -27 -26 -24 -23 -23 -23 -22 -21 -21 -20 -19 -18 -17 -17 -17 -16 -15 -14 -14 -14 -14 -14 -14 -14 -14 -14 -14
-28 -28 -27 -27 -28 -28 -27 -27 -27 -27 -27 -27 -26 -25 -24 -23 -23 -22 -22 -21 -20 -19 -18 -17 -17 -17 -16 -15 -14 -14 -14 -14 -14 -14 -14 -14 -15 -15
-29 -28 -28 -28 -28 -28 -27 -27 -27 -27 -26 -27 -26 -25 -24 -24 -23 -23 -22 -21 -21 -20 -19 -18 -18 -17 -16 -15 -15 -14 -15 -15 -15 -15 -15 -15 -16 -16
-29 -29 -29 -28 -28 -28 -27 -27 -27 -27 -26 -26 -26 -25 -24 -23 -23 -23 -22 -21 -22 -21 -20 -19 -18 -18 -17 -16 -16 -16 -16 -16 -15 -15 -16 -16 -16 -16
-29 -29 -29 -29 -28 -28 -27 -27 -27 -27 -27 -26 -26 -25 -24 -24 -23 -23 -22 -21 -22 -21 -20 -19 -18 -18 -18 -17 -17 -17 -16 -16 -16 -17 -17 -17 -17 -17
-29 -29 -29 -29 -28 -28 -28 -27 -27 -27 -27 -27 -26 -25 -25 -25 -24 -23 -23 -22 -22 -22 -21 -20 -19 -18 -18 -18 -17 -17 -17 -17 -17 -17 -17 -17 -17 -17
-29 -29 -29 -30 -29 -28 -28 -27 -27 -27 -27 -27 -26 -26 -25 -25 -24 -23 -23 -23 -23 -22 -21 -21 -21 -20 -19 -19 -18 -18 -17 -18 -18 -18 -17 -17 -18 -18
-28 -29 -29 -29 -30 -29 -28 -28 -27 -27 -27 -27 -27 -26 -26 -25 -24 -24 -23 -23 -23 -22 -22 -22 -21 -21 -20 -20 -19 -19 -18 -17 -17 -17 -17 -17 -17 -18
-28 -27 -28 -29 -29 -29 -28 -28 -27 -27 -27 -27 -27 -26 -26 -25 -25 -24 -24 -24 -23 -23 -22 -22 -22 -21 -21 -21 -20 -20 -20 -19 -19 -18 -18 -19 -20 -20
-27 -27 -27 -28 -28 -29 -29 -28 -28 -27 -27 -27 -27 -26 -26 -26 -25 -24 -24 -24 -23 -24 -23 -23 -22 -21 -21 -21 -21 -20 -20 -21 -20 -20 -20 -20 -20 -20
-27 -27 -27 -27 -28 -28 -29 -28 -28 -28 -27 -27 -27 -26 -26 -26 -26 -25 -24 -23 -23 -23 -23 -23 -22 -22 -21 -21 -21 -21 -21 -21 -21 -21 -21 -20 -20 -20
-27 -26 -27 -27 -27 -28 -29 -28 -28 -28 -27 -27 -27 -26 -26 -26 -26 -25 -24 -24 -23 -24 -24 -24 -22 -22 -22 -22 -21 -21 -21 -21 -21 -21 -21 -21 -21 -21
-26 -26 -27 -27 -27 -28 -28 -28 -28 -27 -27 -27 -27 -26 -26 -26 -26 -25 -25 -24 -23 -23 -24 -24 -23 -22 -22 -22 -22 -22 -21 -21 -21 -22 -22 -22 -21 -21
-26 -26 -27 -27 -27 -28 -28 -29 -28 -28 -27 -27 -27 -26 -26 -26 -26 -25 -25 -24 -24 -23 -24 -24 -23 -23 -22 -22 -22 -22 -22 -22 -22 -23 -22 -22 -22 -21
-26 -26 -27 -27 -27 -28 -29 -29 -28 -28 -27 -27 -27 -26 -26 -26 -26 -26 -25 -25 -24 -23 -24 -24 -24 -24 -23 -23 -22 -23 -23 -22 -22 -22 -23 -23 -22 -22
-26 -27 -27 -27 -27 -28 -28 -29 -28 -28 -27 -27 -27 -26 -26 -26 -26 -26 -26 -25 -24 -24 -23 -23 -24 -24 -23 -23 -23 -23 -23 -23 -23 -22 -23 -23 -23 -23
Height
5375 5361 5352 5346 5344 5347 5353 5359 5367 5374 5378 5378 5383 5385 5391 5399 5407 5415 5424 5432 5442 5453 5465 5479 5492 5507 5522 5537 5551 5568 5581 5593 5605 5615 5623 5634 5645 5654
5362 5349 5340 5335 5335 5338 5344 5352 5360 5365 5370 5370 5375 5378 5385 5393 5402 5411 5419 5428 5438 5450 5463 5476 5487 5500 5514 5527 5543 5558 5570 5583 5595 5605 5615 5625 5635 5643
5353 5341 5332 5328 5328 5332 5339 5347 5354 5359 5364 5363 5367 5373 5381 5389 5397 5408 5416 5426 5433 5443 5461 5473 5481 5494 5506 5523 5538 5549 5561 5573 5583 5596 5606 5617 5626 5635
5347 5334 5326 5323 5324 5329 5337 5344 5349 5354 5359 5360 5361 5369 5376 5385 5395 5406 5413 5422 5432 5439 5448 5457 5474 5484 5498 5515 5529 5540 5548 5560 5576 5586 5598 5611 5618 5627
5343 5331 5322 5320 5322 5329 5336 5342 5346 5350 5354 5356 5357 5364 5374 5384 5392 5403 5413 5424 5431 5438 5443 5453 5467 5475 5489 5504 5518 5534 5538 5550 5559 5577 5591 5604 5612 5620
5340 5329 5322 5320 5323 5330 5336 5341 5345 5348 5351 5352 5355 5363 5374 5383 5392 5400 5412 5422 5431 5437 5444 5451 5460 5469 5482 5496 5512 5524 5534 5543 5556 5571 5585 5595 5605 5612
5339 5330 5323 5322 5326 5332 5337 5341 5344 5346 5349 5351 5355 5363 5374 5383 5391 5400 5411 5421 5426 5436 5443 5449 5456 5464 5476 5493 5504 5516 5529 5539 5551 5564 5576 5587 5596 5605
5339 5331 5326 5326 5328 5333 5338 5342 5344 5345 5347 5350 5354 5363 5373 5382 5389 5400 5407 5417 5424 5432 5441 5447 5454 5462 5471 5485 5502 5512 5523 5535 5546 5557 5570 5580 5589 5598
5339 5333 5328 5327 5330 5334 5338 5342 5344 5346 5347 5349 5353 5361 5371 5380 5387 5395 5406 5417 5423 5432 5438 5446 5454 5460 5471 5482 5497 5508 5520 5532 5541 5553 5564 5574 5582 5590
5339 5333 5329 5328 5330 5333 5337 5341 5344 5346 5347 5349 5354 5361 5369 5378 5388 5395 5406 5416 5421 5430 5437 5444 5451 5458 5471 5481 5492 5502 5516 5527 5539 5547 5558 5567 5576 5585
5339 5333 5329 5327 5328 5331 5335 5339 5343 5346 5348 5350 5353 5360 5368 5377 5386 5393 5404 5410 5421 5429 5434 5441 5449 5460 5470 5481 5490 5503 5511 5522 5534 5544 5554 5562 5571 5582
5337 5332 5328 5325 5325 5328 5332 5336 5341 5345 5348 5351 5353 5359 5366 5375 5384 5392 5401 5409 5419 5427 5433 5440 5448 5459 5469 5478 5489 5501 5510 5519 5531 5541 5552 5561 5570 5578
5333 5330 5326 5322 5321 5323 5327 5332 5338 5343 5347 5350 5353 5357 5364 5373 5382 5392 5400 5407 5417 5426 5433 5441 5447 5458 5469 5478 5486 5499 5511 5520 5527 5537 5548 5558 5569 5576
5330 5324 5322 5319 5317 5318 5321 5327 5333 5339 5344 5348 5351 5355 5361 5369 5378 5389 5398 5406 5414 5423 5433 5440 5449 5454 5466 5477 5485 5496 5507 5517 5527 5536 5545 5553 5561 5569
5325 5320 5316 5315 5313 5313 5316 5320 5327 5333 5339 5345 5349 5354 5359 5368 5378 5387 5396 5404 5412 5422 5432 5439 5447 5457 5464 5477 5486 5493 5502 5511 5522 5533 5540 5548 5557 5565
5319 5316 5311 5309 5308 5308 5309 5313 5320 5327 5334 5341 5346 5351 5357 5364 5374 5384 5394 5402 5411 5419 5429 5437 5444 5454 5464 5471 5481 5491 5499 5509 5517 5527 5534 5542 5551 5559
5315 5310 5307 5303 5302 5302 5303 5307 5312 5320 5328 5336 5343 5348 5354 5361 5370 5380 5390 5399 5409 5418 5425 5433 5441 5452 5461 5470 5478 5487 5497 5504 5512 5522 5530 5538 5545 5554
5309 5305 5301 5299 5297 5296 5297 5301 5307 5314 5322 5330 5338 5345 5351 5357 5366 5376 5387 5397 5407 5415 5424 5429 5439 5449 5459 5468 5476 5485 5493 5502 5510 5518 5526 5533 5541 5548
5302 5298 5295 5293 5292 5291 5291 5295 5301 5308 5316 5324 5333 5341 5347 5355 5362 5372 5383 5394 5404 5413 5422 5428 5438 5448 5457 5465 5472 5480 5490 5498 5506 5513 5520 5528 5535 5543
5296 5292 5289 5286 5285 5285 5286 5289 5294 5301 5311 5319 5327 5336 5344 5352 5359 5368 5379 5391 5401 5411 5420 5428 5436 5444 5452 5461 5470 5477 5483 5491 5499 5507 5515 5522 5529 5536
5290 5286 5283 5280 5280 5279 5280 5282 5287 5295 5304 5313 5323 5332 5340 5348 5356 5364 5374 5385 5397 5408 5417 5426 5435 5443 5451 5459 5465 5473 5481 5487 5494 5501 5509 5516 5522 5528
5285 5281 5278 5275 5275 5274 5274 5276 5281 5288 5298 5309 5319 5328 5336 5344 5352 5360 5371 5381 5392 5403 5414 5422 5431 5440 5447 5455 5463 5470 5478 5485 5493 5499 5505 5511 5517 5522
5281 5277 5273 5272 5271 5269 5268 5270 5276 5284 5294 5304 5315 5324 5332 5341 5349 5356 5366 5376 5387 5397 5407 5417 5427 5436 5444 5453 5461 5468 5475 5482 5490 5495 5500 5505 5510 5515
Wind_Speed
73 64 56 46 39 33 34 33 29 26 29 33 31 24 35 37 32 37 39 39 42 54 62 69 75 80 83 79 88 79 61 50 62 67 62 65 61 63
68 59 50 40 32 29 31 29 25 24 24 30 27 26 41 32 32 35 34 36 41 45 46 53 61 67 82 71 78 86 56 61 58 62 63 65 63 58
63 54 43 33 25 27 28 26 23 23 21 26 24 29 45 34 24 30 31 37 43 46 44 47 47 62 78 65 72 64 77 69 56 70 66 65 61 57
58 49 38 27 20 25 26 23 21 21 19 22 23 32 45 37 24 32 38 40 43 54 40 35 50 53 74 66 74 49 59 67 81 68 68 62 57 51
53 44 33 20 19 24 25 21 19 19 17 20 22 32 44 36 33 33 39 31 36 45 42 36 47 48 64 79 77 54 51 54 73 67 64 60 52 44
49 39 27 13 19 24 23 19 17 16 16 17 23 38 44 40 37 34 44 22 25 30 43 26 39 47 54 64 73 63 52 64 66 66 61 57 49 46
44 34 23 11 19 24 21 17 15 14 15 15 24 44 44 47 44 43 30 33 28 35 34 34 36 44 55 65 63 55 54 58 62 62 60 57 50 47
37 31 16 11 18 23 21 16 14 12 14 13 24 47 45 48 45 42 28 23 28 31 33 36 34 35 35 47 60 58 54 50 47 56 60 56 52 48
34 27 14 11 19 24 22 18 14 10 13 12 24 46 42 49 48 49 45 22 29 31 42 38 39 31 34 33 53 51 52 51 49 53 48 49 44 44
34 26 16 12 19 25 24 21 16 11 12 11 21 42 42 48 47 44 47 33 29 29 30 34 29 30 46 45 46 47 53 45 58 49 45 44 44 44
33 29 19 13 18 26 27 25 20 15 10 12 20 33 43 43 46 48 44 46 34 27 32 34 41 38 35 43 40 51 51 41 49 45 44 46 47 43
30 28 23 14 16 26 30 29 25 20 15 13 15 34 43 38 37 42 42 54 39 36 38 34 47 44 46 43 39 39 40 46 43 41 38 46 42 42
30 28 24 18 14 23 30 33 30 26 21 16 17 29 39 43 35 37 41 47 42 40 35 35 37 53 39 46 45 44 47 44 49 45 46 45 41 36
29 28 22 18 16 18 29 35 35 30 26 22 19 22 39 40 38 39 38 37 36 38 40 35 30 36 36 28 37 39 48 45 39 35 40 33 37 40
29 25 25 20 17 18 23 33 37 36 31 27 23 23 31 39 42 38 44 41 39 38 41 36 34 32 32 29 28 27 33 41 45 46 39 40 33 30
32 26 25 24 16 19 22 29 38 38 38 33 28 25 26 38 43 41 45 43 37 33 34 32 32 35 32 28 29 29 26 27 31 29 23 24 27 27
27 27 23 22 16 19 22 26 34 41 37 37 33 28 29 35 43 44 40 41 37 36 28 27 30 32 32 34 31 30 26 26 24 22 25 29 33 39
26 25 24 22 16 15 23 26 32 37 38 38 36 32 32 33 43 45 45 40 39 40 41 39 33 30 31 36 36 32 29 30 32 31 32 34 35 38
29 26 23 21 18 14 19 27 33 38 38 39 38 35 33 34 43 46 48 44 42 45 44 40 34 28 28 30 35 36 34 35 38 39 39 40 41 39
28 25 23 19 17 16 18 25 33 40 39 39 40 37 35 35 42 49 49 48 47 55 46 40 38 31 27 28 28 35 39 41 42 42 42 41 41 40
25 23 21 17 15 15 17 24 32 39 41 40 41 38 35 38 40 47 50 51 51 55 54 46 43 37 33 33 33 34 39 41 44 42 42 44 46 46
23 24 19 13 14 13 16 23 32 39 42 41 42 39 36 40 39 44 49 51 56 59 56 50 44 42 36 34 33 31 30 32 35 35 36 37 41 44
21 21 15 11 12 12 13 22 30 38 42 43 42 39 37 41 39 43 47 51 56 59 61 55 51 46 42 41 41 35 31 29 29 28 30 36 36 34
Wind_Direction
319 315 308 297 284 261 244 239 242 246 252 252 257 249 217 194 203 202 217 216 218 221 220 223 223 222 217 220 220 218 213 222 217 219 217 223 223 225
323 318 310 298 281 247 233 230 240 241 244 249 262 224 191 182 191 210 210 205 209 213 213 223 225 225 220 217 216 219 207 219 215 215 216 224 228 227
327 322 313 299 272 232 223 222 236 239 238 251 249 209 201 189 184 193 196 191 205 187 195 208 220 223 220 214 214 218 223 215 218 211 212 219 223 226
330 326 316 299 253 221 212 218 232 240 232 244 241 202 199 191 185 190 196 195 204 208 213 177 203 216 219 212 210 214 216 218 221 216 210 217 224 231
333 329 319 296 229 211 204 216 227 236 229 243 235 201 193 192 178 182 192 185 206 222 205 183 190 209 207 213 205 206 192 210 206 208 210 216 219 216
336 332 322 278 217 202 201 213 224 229 234 244 211 192 194 188 189 188 189 191 197 214 216 201 188 201 203 210 217 216 205 200 202 207 211 213 214 211
336 335 322 248 212 197 201 209 224 225 234 238 208 186 189 186 189 193 184 203 199 179 183 169 185 188 192 204 210 204 198 202 204 203 208 210 214 215
337 335 318 246 210 197 201 206 221 222 234 226 203 185 189 185 192 188 147 164 172 197 174 171 187 194 185 201 203 194 193 195 199 202 205 206 211 212
337 335 311 255 214 201 203 208 217 220 233 229 203 190 185 187 194 196 181 171 175 172 163 156 165 189 179 178 188 198 201 201 205 197 207 202 209 207
339 335 316 264 220 207 206 209 212 210 222 235 206 198 190 196 194 198 196 163 152 194 168 166 149 167 183 162 171 170 182 187 196 199 200 198 196 195
336 335 323 274 229 213 210 211 212 208 215 223 211 203 194 200 201 201 202 188 197 172 176 175 165 157 168 167 157 168 172 176 190 186 185 183 184 181
333 332 327 296 242 220 213 213 214 211 210 221 216 202 206 204 201 207 202 197 190 188 175 179 168 167 160 168 180 172 164 172 181 179 173 185 185 183
325 326 322 307 257 228 218 215 214 213 209 214 214 205 207 207 197 202 202 207 209 199 192 193 185 177 178 166 168 171 171 158 165 174 179 187 186 195
322 318 320 308 278 239 223 216 215 213 210 211 215 208 205 205 194 195 200 206 199 212 201 203 200 203 185 187 201 188 174 163 175 177 190 193 183 182
324 319 311 303 284 251 230 219 215 214 213 211 214 212 207 204 199 190 189 202 210 213 209 216 220 212 217 208 201 203 207 197 195 198 197 200 197 180
319 321 308 305 284 255 235 223 215 212 214 214 215 213 206 204 202 194 193 199 203 210 210 211 216 220 217 220 212 210 210 215 217 215 204 181 174 181
313 310 308 312 296 255 236 223 215 212 211 212 212 212 207 200 203 201 193 195 193 185 192 200 205 207 214 216 215 216 207 194 189 193 189 185 185 194
316 309 301 300 298 264 239 220 212 207 208 209 208 207 205 200 199 200 197 191 186 173 172 178 188 193 201 208 212 209 212 201 188 191 191 190 194 200
319 316 306 291 291 269 243 223 211 207 206 205 203 203 204 201 198 198 197 193 184 171 177 176 185 186 187 191 196 202 200 197 193 194 197 201 201 206
320 317 308 292 277 272 243 225 213 207 204 203 200 201 200 198 196 198 197 194 189 177 179 185 189 190 189 190 195 196 196 198 197 198 200 201 203 211
316 312 305 291 278 270 243 224 212 206 202 200 198 198 198 194 196 196 196 192 192 187 186 189 192 193 188 193 194 195 198 199 199 200 203 205 206 213
311 320 309 287 288 272 246 221 210 204 199 197 197 196 196 192 194 193 195 194 190 189 187 190 193 189 193 196 192 187 192 202 201 204 204 209 212 216
314 320 310 284 288 282 246 214 206 201 197 194 194 194 194 190 193 193 193 195 194 194 198 199 202 195 198 202 197 197 201 202 208 221 226 221 223 229